Time,TemperatureF,DewpointF,PressureIn,WindDirection,WindDirectionDegrees,WindSpeedMPH,WindSpeedGustMPH,Humidity,HourlyPrecipIn,Conditions,Clouds,dailyrainin,SoftwareType,DateUTC
2013-03-10 00:00:00,25.4,23.7,30.13,NW,315,1.0,4.0,93,0.00,,---,0.00,VWS V14.01,2013-03-10 09:00:00,
2013-03-10 00:30:00,25.1,23.4,30.14,WNW,292,1.0,5.0,93,0.00,,---,0.00,VWS V14.01,2013-03-10 09:30:00,
2013-03-10 03:00:00,24.5,22.2,30.14,WNW,292,1.0,7.0,91,0.00,,---,0.00,VWS V14.01,2013-03-10 11:00:00,
2013-03-10 03:30:00,23.8,21.3,30.16,West,270,1.0,5.0,90,0.00,,---,0.00,VWS V14.01,2013-03-10 11:30:00,
2013-03-10 04:00:00,22.9,20.7,30.16,West,270,2.0,7.0,91,0.00,,---,0.00,VWS V14.01,2013-03-10 12:00:00,
2013-03-10 04:30:00,21.6,18.3,30.17,West,270,2.0,6.0,87,0.00,,---,0.00,VWS V14.01,2013-03-10 12:30:00,
2013-03-10 05:00:00,21.0,17.2,30.17,WNW,292,1.0,9.0,85,0.00,,---,0.00,VWS V14.01,2013-03-10 13:00:00,
2013-03-10 05:30:00,20.9,17.1,30.17,West,270,0.0,4.0,85,0.00,,---,0.00,VWS V14.01,2013-03-10 13:30:00,
2013-03-10 06:00:00,20.0,16.5,30.18,West,270,0.0,3.0,86,0.00,,---,0.00,VWS V14.01,2013-03-10 14:00:00,
2013-03-10 06:30:00,19.3,16.1,30.18,West,270,0.0,2.0,87,0.00,,---,0.00,VWS V14.01,2013-03-10 14:30:00,
2013-03-10 07:00:00,18.9,15.7,30.18,West,270,0.0,2.0,87,0.00,,---,0.00,VWS V14.01,2013-03-10 15:00:00,
2013-03-10 07:30:00,18.7,15.2,30.18,West,270,0.0,1.0,86,0.00,,---,0.00,VWS V14.01,2013-03-10 15:30:00,
2013-03-10 08:00:00,18.4,16.0,30.18,West,270,0.0,2.0,90,0.00,,---,0.00,VWS V14.01,2013-03-10 16:00:00,
2013-03-10 08:30:00,17.9,15.7,30.18,West,270,1.0,3.0,91,0.00,,---,0.00,VWS V14.01,2013-03-10 16:30:00,
2013-03-10 09:00:00,18.0,16.1,30.19,WSW,248,1.0,4.0,92,0.00,,---,0.00,VWS V14.01,2013-03-10 17:00:00,
2013-03-10 09:30:00,18.3,16.6,30.20,WSW,248,0.0,4.0,93,0.00,,---,0.00,VWS V14.01,2013-03-10 17:30:00,
2013-03-10 10:00:00,19.1,17.2,30.21,SW,225,0.0,3.0,92,0.00,,---,0.00,VWS V14.01,2013-03-10 18:00:00,
2013-03-10 10:30:00,19.3,17.9,30.21,South,180,1.0,4.0,94,0.00,,---,0.00,VWS V14.01,2013-03-10 18:30:00,
2013-03-10 11:00:00,19.3,17.9,30.21,South,180,1.0,5.0,94,0.00,,---,0.00,VWS V14.01,2013-03-10 19:00:00,
2013-03-10 11:30:00,18.9,17.5,30.22,South,180,2.0,5.0,94,0.00,,---,0.00,VWS V14.01,2013-03-10 19:30:00,
2013-03-10 12:00:00,19.9,18.5,30.22,SSE,158,1.0,4.0,94,0.00,,---,0.00,VWS V14.01,2013-03-10 20:00:00,
2013-03-10 12:30:00,20.4,18.2,30.23,SSE,158,1.0,6.0,91,0.00,,---,0.00,VWS V14.01,2013-03-10 20:30:00,
2013-03-10 13:00:00,22.2,19.2,30.24,SSE,158,1.0,5.0,88,0.00,,---,0.00,VWS V14.01,2013-03-10 21:00:00,
2013-03-10 13:30:00,21.8,18.3,30.25,South,180,3.0,8.0,86,0.00,,---,0.00,VWS V14.01,2013-03-10 21:30:00,
2013-03-10 14:00:00,22.7,17.5,30.25,South,180,2.0,7.0,80,0.00,,---,0.00,VWS V14.01,2013-03-10 22:00:00,
2013-03-10 14:30:00,23.8,18.5,30.26,SSW,202,1.0,5.0,80,0.00,,---,0.00,VWS V14.01,2013-03-10 22:30:00,
2013-03-10 15:00:00,23.9,15.9,30.26,South,180,2.0,7.0,71,0.00,,---,0.00,VWS V14.01,2013-03-10 23:00:00,
2013-03-10 15:30:00,25.2,14.4,30.27,WSW,248,2.0,5.0,63,0.00,,---,0.00,VWS V14.01,2013-03-10 23:30:00,
2013-03-10 16:00:00,25.7,15.6,30.28,SW,225,3.0,7.0,65,0.00,,---,0.00,VWS V14.01,2013-03-11 00:00:00,
2013-03-10 16:30:00,25.1,16.0,30.29,SW,225,3.0,7.0,68,0.00,,---,0.00,VWS V14.01,2013-03-11 00:30:00,
2013-03-10 17:00:00,24.8,15.8,30.29,SW,225,2.0,6.0,68,0.00,,---,0.00,VWS V14.01,2013-03-11 01:00:00,
2013-03-10 17:30:00,24.5,15.5,30.29,SW,225,2.0,6.0,68,0.00,,---,0.00,VWS V14.01,2013-03-11 01:30:00,
2013-03-10 18:00:00,24.2,15.8,30.30,SW,225,1.0,5.0,70,0.00,,---,0.00,VWS V14.01,2013-03-11 02:00:00,
2013-03-10 18:30:00,22.9,15.6,30.31,SW,225,2.0,5.0,73,0.00,,---,0.00,VWS V14.01,2013-03-11 02:30:00,
2013-03-10 19:00:00,22.3,15.3,30.31,SW,225,1.0,4.0,74,0.00,,---,0.00,VWS V14.01,2013-03-11 03:00:00,
2013-03-10 19:30:00,21.7,15.0,30.32,SW,225,0.0,3.0,75,0.00,,---,0.00,VWS V14.01,2013-03-11 03:30:00,
2013-03-10 20:00:00,20.6,14.6,30.33,SW,225,0.0,1.0,77,0.00,,---,0.00,VWS V14.01,2013-03-11 04:00:00,
2013-03-10 20:30:00,20.5,14.7,30.35,SW,225,0.0,2.0,78,0.00,,---,0.00,VWS V14.01,2013-03-11 04:30:00,
2013-03-10 21:00:00,20.3,14.6,30.36,SW,225,0.0,2.0,78,0.00,,---,0.00,VWS V14.01,2013-03-11 05:00:00,
2013-03-10 21:30:00,19.7,14.5,30.37,SW,225,0.0,0.0,80,0.00,,---,0.00,VWS V14.01,2013-03-11 05:30:00,
2013-03-10 22:00:00,19.7,14.5,30.38,SW,225,1.0,2.0,80,0.00,,---,0.00,VWS V14.01,2013-03-11 06:00:00,
2013-03-10 22:30:00,19.4,12.5,30.39,West,270,1.0,4.0,74,0.00,,---,0.00,VWS V14.01,2013-03-11 06:30:00,
2013-03-10 23:00:00,19.2,11.4,30.41,NW,315,1.0,5.0,71,0.00,,---,0.00,VWS V14.01,2013-03-11 07:00:00,
2013-03-10 23:30:00,18.9,11.1,30.41,NW,315,0.0,2.0,71,0.00,,---,0.00,VWS V14.01,2013-03-11 07:30:00,